Regional Weather Roundup
Issued by NWS Green Bay, WI

Home | Current Version | Previous Version | Graphics & Text | Print | Product List | Glossary Off
Versions: 1 2 3 4 5 6 7 8 9 10 11 12 13 14 15 16 17 18 19 20 21 22 23 24 25 26 27 28 29 30 31 32 33 34 35 36 37 38 39 40 41 42 43 44 45 46 47 48 49 50

000
ASUS43 KGRB 022100
RWRGRB

NORTH-CENTRAL AND NORTHEAST WISCONSIN REGIONAL WEATHER ROUNDUP
NATIONAL WEATHER SERVICE GREEN BAY WI
300 PM CST FRI DEC 02 2016

WIZ005-009-010>012-018-019-022200-
NORTH CENTRAL WISCONSIN

CITY           SKY/WX    TMP DP  RH WIND       PRES   REMARKS
IRONWOOD       CLOUDY    29  27  92 W7        30.19R
MANITOWISH WTR NOT AVBL
ARBOR VITAE    NOT AVBL
EAGLE RIVER    NOT AVBL
LAND O LAKES   NOT AVBL
RHINELANDER    CLOUDY    32  26  78 W7        30.16R
PHILLIPS       CLOUDY    29  25  83 NW3       30.17R
ANTIGO         NOT AVBL
TOMAHAWK       NOT AVBL
MERRILL        CLOUDY    32  26  77 NW5       30.19R
$$

WIZ013-073-022200-
NORTHEAST WISCONSIN

CITY           SKY/WX    TMP DP  RH WIND       PRES   REMARKS
IRON MOUNTAIN  CLOUDY    35  27  72 W13       30.13R
MARINETTE      CLOUDY    37  28  70 VRB6      30.17R
$$

WIZ017-030-035>037-045-022200-
CENTRAL WISCONSIN

CITY           SKY/WX    TMP DP  RH WIND       PRES   REMARKS
MEDFORD        NOT AVBL
WAUSAU         CLOUDY    32  24  72 NW8       30.17R
MOSINEE        NOT AVBL
MARSHFIELD     CLOUDY    30  22  72 NW12      30.19R
WISC RAPIDS    CLOUDY    32  23  69 NW9       30.22R
STEVENS POINT  NOT AVBL
WAUPACA        CLOUDY    35  25  67 NW8       30.21R
SHAWANO        CLOUDY    37  27  68 W7        30.19R
CLINTONVILLE   CLOUDY    34  25  69 NW6       30.19R
WAUTOMA        CLOUDY    33  23  66 NW8       30.22R
$$

WIZ038-039-048-051-022200-
FOX VALLEY

CITY           SKY/WX    TMP DP  RH WIND       PRES   REMARKS
NWS GREEN BAY  CLOUDY    37  29  72 NW12      30.18R
APPLETON       CLOUDY    34  23  64 W10       30.17R
OSHKOSH        CLOUDY    33  24  69 W10       30.19R
FOND DU LAC    CLOUDY    34  23  64 NW9       30.20R
$$

WIZ022-050-052-022200-
EAST CENTRAL WISCONSIN

CITY           SKY/WX    TMP DP  RH WIND       PRES   REMARKS
EPHRAIM        NOT AVBL
WASHINGTON ISL CLOUDY    37  29  74 W8        30.14R
STURGEON BAY   CLOUDY    36  28  73 W8        30.17R
MANITOWOC      NOT AVBL
SHEBOYGAN      CLOUDY    34  25  69 NW9       30.19R
$$

LMZ563-521-522-541>543-022200-
LAKESHORE

STATION/POSITION TIME  TEMP    WIND        PRES    VSBY  WAVE
                       AIR SEA DIR/SP/G                  HT/PER
                 (UTC) (F)     (DEG/KT/KT) (MB)    (MI)  (FT/S)
SHEBOYGAN LKSHOR 2000   34     300/ 11/ 15 1022.3R
KEWAUNEE LKSHORE 2030   35     290/  8/ 12 1020.9R
ALGOMA MARINA    2021          310/ 10/ 12   N/A
NORTHPORT PIER   2040   37     300/  8/ 14 1020.7R
SISTER BAY LKSHO 2008   37     310/ 15/ 17   N/A
CHAMBERS ISLAND  2040   37     240/  5/  9 1020.7R
MENOMINEE LKSHOR 2030   37     280/  7/ 12 1020.2R
$$



USA.gov is the U.S. government's official web portal to all federal, state and local government web resources and services.